Вернуться в каталог

STARLINK-3534

АктивенСвязьVLEO
NORAD 52120·PAYLOAD·🇺🇸 United States

Запущен Mar 19, 2022 с Cape Canaveral Space Force Station

Loading…

Ближайшие Пролёты (ближайшие 24 часа)

TLE

СвежийSource: CelesTrak SupGP

Эпоха: Sep 14, 2026, 20:46 UTC

1 52120C 22029AJ  26257.86576389  .00004262  00000+0  12594-3 0  2573
2 52120  53.1584 293.8644 0001103  92.4435 356.6890 15.34386702    13

Отслеживайте STARLINK-3534 в реальном времени с AllMySat

Download on the App Store